This is the latest recevied weather packets stored in our database for station/object WA6OOO. If no packets are shown the sender has not sent any weather packets the latest 10 day(s).
| Time | Temp. | Humidity | Pressure | Rain* | Wind** | Luminosity | Snow |
|---|---|---|---|---|---|---|---|
| 1777660747 | 20° C | 68% | 1017.9 hPa | 0 mm | - | 754 W/m² | - |
| 1777660445 | 20.56° C | 67% | 1018.2 hPa | 0 mm | - | 704 W/m² | - |
| 1777660141 | 20° C | 67% | 1018.2 hPa | 0 mm | - | 725 W/m² | - |
| 1777659838 | 19.44° C | 70% | 1018 hPa | 0 mm | - | 736 W/m² | - |
| 1777659534 | 20° C | 69% | 1018.2 hPa | 0 mm | - | 734 W/m² | - |
| 1777659232 | 20° C | 68% | 1018.2 hPa | 0 mm | - | 716 W/m² | - |
| 1777658929 | 20° C | 68% | 1018 hPa | 0 mm | - | 722 W/m² | - |
| 1777658625 | 19.44° C | 68% | 1018.2 hPa | 0 mm | - | 708 W/m² | - |
| 1777658322 | 20° C | 68% | 1018.2 hPa | 0 mm | - | 699 W/m² | - |
| 1777658019 | 18.89° C | 71% | 1018.4 hPa | 0 mm | - | 685 W/m² | - |
| 1777657716 | 19.44° C | 70% | 1018.4 hPa | 0 mm | - | 692 W/m² | - |
| 1777657413 | 19.44° C | 70% | 1018.4 hPa | 0 mm | - | 686 W/m² | - |
| 1777657111 | 18.89° C | 72% | 1018.6 hPa | 0 mm | - | 691 W/m² | - |
| 1777656808 | 18.89° C | 72% | 1018.4 hPa | 0 mm | - | 748 W/m² | - |
| 1777656503 | 18.33° C | 74% | 1018.3 hPa | 0 mm | - | 765 W/m² | - |
| 1777656199 | 18.89° C | 71% | 1018.5 hPa | 0 mm | - | 581 W/m² | - |
| 1777655895 | 18.33° C | 74% | 1018.5 hPa | 0 mm | - | 772 W/m² | - |
| 1777655600 | 17.78° C | 75% | 1018.5 hPa | 0 mm | - | 693 W/m² | - |
| 1777655288 | 17.78° C | 75% | 1018.6 hPa | 0 mm | - | 359 W/m² | - |
| 1777654986 | 17.22° C | 77% | 1018.5 hPa | 0 mm | - | 388 W/m² | - |
| 1777654683 | 17.22° C | 78% | 1018.7 hPa | 0 mm | - | 372 W/m² | - |
| 1777654381 | 16.67° C | 79% | 1018.5 hPa | 0 mm | - | 286 W/m² | - |
| 1777654078 | 16.67° C | 81% | 1018.6 hPa | 0 mm | - | 241 W/m² | - |
| 1777653775 | 16.67° C | 81% | 1018.7 hPa | 0 mm | - | 225 W/m² | - |
| 1777653471 | 16.67° C | 81% | 1018.3 hPa | 0 mm | - | 232 W/m² | - |
* Rain latest hour (hover to see other rain measurements)
** Current wind speed in m/s (hover to see current wind gust speed)